Regional Weather Roundup
Issued by NWS

Home | Current Version | Previous Version | Graphics & Text | Print | Product List | Glossary On
Versions: 1 2 3 4 5 6 7 8 9 10 11 12 13 14 15 16 17 18 19 20 21 22 23 24 25 26 27 28 29 30 31 32 33 34 35 36 37 38 39 40 41 42 43 44 45 46 47 48 49 50
000
ASUS45 KBOI 042110
RWRID
WEATHER ROUNDUP FOR IDAHO
NATIONAL WEATHER SERVICE BOISE ID
200 PM MST WED MAR 04 2015

NOTE: "FAIR" INDICATES FEW OR NO CLOUDS BELOW 12000 FEET
WITH NO SIGNIFICANT WEATHER AND/OR OBSTRUCTIONS TO VISIBILITY

IDZ012-014-042200-
SOUTHWEST IDAHO


CITY           SKY/WX    TMP DP  RH WIND       PRES   REMARKS
BOISE          SUNNY     42  10  27 NW6       30.28F
CALDWELL       SUNNY     43  10  26 CALM      30.31F
MOUNTAIN HOME  SUNNY     43   9  25 NW9       30.26F
$$

IDZ016-017-042200-
SOUTHCENTRAL IDAHO


CITY           SKY/WX    TMP DP  RH WIND       PRES   REMARKS
JEROME         SUNNY     37  13  37 SW12      30.23F WCI  29
TWIN FALLS     SUNNY     40   5  23 W15G23    30.23F WCI  32
$$

IDZ019>023-042200-
SOUTHEAST IDAHO


CITY           SKY/WX    TMP DP  RH WIND       PRES   REMARKS
IDAHO FALLS    SUNNY     30   2  30 VRB3      30.21F
POCATELLO      SUNNY     33   6  32 W6        30.23F WCI  28
REXBURG        SUNNY     28   4  35 CALM      30.20F
$$

IDZ006-010-011-018-031-032-042200-
CENTRAL IDAHO MOUNTAINS


CITY           SKY/WX    TMP DP  RH WIND       PRES   REMARKS
MCCALL         SUNNY     35   2  24 W6        30.18F WCI  30
HAILEY         SUNNY     34  12  40 SE15      30.18F WCI  24
STANLEY          N/A     32  -1  24 W3        30.13F
SALMON         SUNNY     34   3  27 NW3       30.20F
CHALLIS        SUNNY     33  -3  21 VRB3      30.15F
$$

IDZ002-004-006-007-026-042200-
NORTHERN IDAHO


CITY           SKY/WX    TMP DP  RH WIND       PRES   REMARKS
LEWISTON       SUNNY     45  20  36 N5        30.31F
LOWELL           N/A     46  17  31 S8        30.33F
COEUR D`ALENE  SUNNY     43  18  36 SW3       30.25F
MULLAN PASS    SUNNY     24   5  44 VRB5      30.11S WCI  18
$$


USA.gov is the U.S. government's official web portal to all federal, state and local government web resources and services.